Location: St. Louis
(38.6270°N, 90.1994°W)
Time: 10:39:39
(UTC-06:00)

A-11 Canister half - Pass Details

Date: 14 December 2021
Orbit: 1524 x 1684 km, 47.3° (Epoch: 25 January)

Event Time Altitude Azimuth Distance (km) Brightness Sun altitude
Rises 03:36:20 0° 297° (WNW) 4,941 - -41.0°
Reaches altitude 10° 03:39:33 10° 299° (WNW) 3,949 - -40.4°
Exits shadow 03:49:29 72° 14° (NNE) 1,733 9.1 -38.4°
Maximum altitude 03:49:44 72° 24° (NNE) 1,730 9.1 -38.4°
Drops below altitude 10° 03:59:38 10° 109° (ESE) 3,853 11.8 -36.4°
Sets 04:02:44 0° 112° (ESE) 4,817 12.5 -35.8°
